Location: Scottsdale
(33.5090°N, 111.8980°W)
Time: 05:50:33
(UTC-07:00)

ISS - Visible Passes

Search period start: 18 December 2017 00:00
Search period end: 28 December 2017 00:00
Orbit: 402 x 406 km, 51.6° (Epoch: 18 December)

Date Brightness Start Highest point End Pass type
(mag) Time Alt. Az. Time Alt. Az. Time Alt. Az.
18 Dec -1.4 18:16:44 10° WNW 18:19:33 27° SW 18:22:22 10° S visible
24 Dec -0.6 06:33:07 10° SSE 06:35:13 16° SE 06:37:20 10° E visible
26 Dec -2.7 06:23:39 10° SSW 06:26:47 46° SE 06:29:56 10° ENE visible
27 Dec -1.2 05:32:31 13° S 05:34:33 21° SE 05:37:05 10° ENE visible
